FW6766 Weather Reports


Display with metric or nautical units.
time (UTC)temp
F
wind
direction
speed
MPH
gust
MPH
rain 1hr
in
rain 24hr
in
rain mn
in
humidity
%
barometer
mb
20260502190017 71 0 2.0 4.0 0.00 0.00 0.00 44 1013.6
20260502185017 70 0 3.0 10.0 0.00 0.00 0.00 42 1013.4
20260502184017 70 0 3.0 10.0 0.00 0.00 0.00 42 1013.4
20260502183018 69 0 2.0 8.0 0.00 0.00 0.00 46 1013.4
20260502182017 69 0 2.0 6.0 0.00 0.00 0.00 49 1013.5
20260502181017 69 0 1.0 4.0 0.00 0.00 0.00 47 1013.6
20260502164017 68 0 2.0 6.0 0.00 0.00 0.00 55 1014.4
20260502163037 67 0.0 2.0 0.00 0.00 0.00 56 1014.5
20260502162016 66 0.0 3.0 0.00 0.00 0.00 56 1014.6
20260502161018 66 0 2.0 5.0 0.00 0.00 0.00 56 1014.6
20260502152016 61 0 1.0 4.0 0.00 0.00 0.00 65 1014.6
20260502151017 59 0 1.0 5.0 0.00 0.00 0.00 67 1014.5
20260502123016 53 0.0 0.0 0.00 0.00 0.00 79 1013.2
20260502122016 53 0.0 0.0 0.00 0.00 0.00 78 1013.5
20260502121016 53 0.0 0.0 0.00 0.00 0.00 78 1013.0
20260502115016 53 0.0 1.0 0.00 0.00 0.00 78 1012.5
20260502114016 53 0.0 0.0 0.00 0.00 0.00 77 1013.0
20260502113016 53 0.0 0.0 0.00 0.00 0.00 80 1013.2
20260502112016 53 0.0 1.0 0.00 0.00 0.00 81 1013.6
20260502111016 53 0.0 3.0 0.00 0.00 0.00 82 1013.6
20260502110016 53 0.0 1.0 0.00 0.00 0.00 81 1013.2
20260502105016 53 0.0 0.0 0.00 0.00 0.00 81 1013.0
20260502104016 53 0.0 0.0 0.00 0.00 0.00 79 1012.9
20260502103037 53 0.0 2.0 0.00 0.00 0.00 79 1012.7
20260502102016 53 0.0 0.0 0.00 0.00 0.00 79 1012.6
20260502101016 53 0.0 1.0 0.00 0.00 0.00 80 1012.1
20260502091015 54 0.0 1.0 0.00 0.00 0.00 83 1012.6
20260502071018 54 0.0 0.0 0.00 0.00 0.00 85 1013.3
20260502070017 54 0.0 0.0 0.00 0.00 0.00 86 1013.4
20260502065017 54 0.0 1.0 0.00 0.00 0.00 86 1013.6
20260502064017 54 0.0 0.0 0.00 0.00 0.00 86 1013.8
20260502063017 55 0.0 0.0 0.00 0.00 0.00 86 1013.6
20260502062017 55 0.0 0.0 0.00 0.00 0.00 85 1013.7
20260502061017 55 0.0 0.0 0.00 0.00 0.00 86 1013.9
20260502060038 55 0.0 0.0 0.00 0.00 0.00 85 1013.9
20260502055017 55 0.0 0.0 0.00 0.00 0.00 85 1013.8
20260502054017 55 0.0 0.0 0.00 0.00 0.00 84 1013.8
20260502053017 56 0.0 2.0 0.00 0.00 0.00 82 1013.7
20260502052017 56 0.0 0.0 0.00 0.00 0.00 81 1014.0
20260502051017 56 0.0 0.0 0.00 0.00 0.00 80 1014.1
20260502050017 57 0.0 0.0 0.00 0.00 0.00 78 1014.1
20260502045038 57 0.0 0.0 0.00 0.00 0.00 77 1014.0
20260502044036 57 0.0 0.0 0.00 0.00 0.00 76 1014.1
20260502043017 57 23 1.0 3.0 0.00 0.00 0.00 75 1014.1
20260502042017 57 0.0 4.0 0.00 0.00 0.00 77 1014.3
20260502041036 57 0.0 0.0 0.00 0.00 0.00 77 1014.5
20260502040017 57 0.0 0.0 0.00 0.00 0.00 77 1014.4
20260502035017 57 0.0 0.0 0.00 0.00 0.00 80 1014.6
20260502034017 57 0.0 0.0 0.00 0.00 0.00 78 1014.7
20260502033016 57 0.0 0.0 0.00 0.00 0.00 79 1014.8
20260502032016 57 0.0 0.0 0.00 0.00 0.00 79 1014.7
20260502031017 58 0.0 0.0 0.00 0.00 0.00 78 1014.8
20260502030016 58 0.0 0.0 0.00 0.00 0.00 78 1015.0
20260502025016 58 0.0 0.0 0.00 0.00 0.00 79 1014.9
20260502024017 58 0.0 0.0 0.00 0.00 0.00 78 1014.8
20260502023016 58 0.0 0.0 0.00 0.00 0.00 78 1014.9
20260502022016 58 0.0 0.0 0.00 0.00 0.00 78 1014.8
20260502021017 58 0.0 0.0 0.00 0.00 0.00 77 1014.7
20260502020016 58 0.0 0.0 0.00 0.00 0.00 78 1014.6
20260502015016 58 0.0 0.0 0.00 0.00 0.00 78 1014.4
20260502014016 58 0.0 0.0 0.00 0.00 0.00 77 1014.4
20260502013017 58 0.0 0.0 0.00 0.00 0.00 77 1014.3
20260502012016 58 0.0 0.0 0.00 0.00 0.00 76 1014.1
20260502011016 59 0.0 0.0 0.00 0.00 0.00 75 1013.8
20260502010036 59 0.0 0.0 0.00 0.00 0.00 75 1013.8
20260502005016 59 0.0 0.0 0.00 0.00 0.00 74 1013.9
20260502004016 59 0.0 0.0 0.00 0.00 0.00 73 1013.7
20260502003016 60 0.0 0.0 0.00 0.00 0.00 73 1013.6
20260502002017 60 0.0 0.0 0.00 0.00 0.00 72 1013.7
20260502001016 60 0.0 0.0 0.00 0.00 0.00 71 1013.6
20260502000036 61 0.0 0.0 0.00 0.00 0.00 70 1013.5
20260501235016 61 0.0 0.0 0.00 0.00 0.00 69 1013.2
20260501234016 62 0.0 0.0 0.00 0.00 0.00 68 1013.2
20260501233016 62 0.0 0.0 0.00 0.00 0.00 67 1013.4
20260501232017 63 0.0 0.0 0.00 0.00 0.00 67 1013.5
20260501231015 63 0.0 0.0 0.00 0.00 0.00 67 1013.4
20260501230016 63 0.0 0.0 0.00 0.00 0.00 62 1013.6
20260501225016 63 0.0 0.0 0.00 0.00 0.00 60 1013.3
20260501224016 64 0.0 0.0 0.00 0.00 0.00 65 1013.2
20260501223015 64 0.0 0.0 0.00 0.00 0.00 60 1013.1
20260501222016 64 0.0 0.0 0.00 0.00 0.00 60 1012.9
20260501221017 64 0.0 0.0 0.00 0.00 0.00 61 1012.9
20260501220016 65 0.0 0.0 0.00 0.00 0.00 63 1013.3
20260501215016 65 0.0 0.0 0.00 0.00 0.00 61 1013.5
20260501214015 65 0.0 0.0 0.00 0.00 0.00 61 1013.6
20260501213015 65 0.0 0.0 0.00 0.00 0.00 56 1013.7
20260501212035 65 0.0 0.0 0.00 0.00 0.00 56 1013.8
20260501211015 66 0.0 0.0 0.00 0.00 0.00 60 1013.7
20260501210016 66 0.0 0.0 0.00 0.00 0.00 51 1013.9
20260501205016 66 0.0 0.0 0.00 0.00 0.00 57 1014.4
20260501204015 66 0 1.0 3.0 0.00 0.00 0.00 53 1014.6
20260501203015 65 0.0 0.0 0.00 0.00 0.00 57 1014.8
20260501202035 65 0.0 0.0 0.00 0.00 0.00 54 1014.8
20260501201015 65 0.0 0.0 0.00 0.00 0.00 54 1014.7
20260501200017 65 0.0 0.0 0.00 0.00 0.00 55 1014.6
20260501195018 65 0 1.0 3.0 0.00 0.00 0.00 55 1014.8
20260501194017 65 0.0 2.0 0.00 0.00 0.00 53 1014.5
20260501192517 66 0.0 1.0 0.00 0.00 0.00 57 1014.8
20260501191517 66 0.0 1.0 0.00 0.00 0.00 57 1014.9